Weather in Mexicali

Mexico     32˚38′22″N   115˚27′04″W
temp.,
°C
wind,
m/s
gust,
m/s
humid.,
%
clouds,
%
prec.,
mm/h
press.,
hPa
HPBL,
m
28 november, sat
sat2801:00+8˚nne12220 0.0 102326
04:00+9˚wnw22210 0.0 102322
07:00+9˚n12220 0.0 102327
10:00+19˚nw23120 0.0 1024580
13:00+22˚nw12110 0.0 10201119
16:00+20˚nw23140 0.0 1019129
19:00+13˚nnw12220 0.0 102024
22:00+12˚nw12210 0.0 102023
29 november, sun
sun2901:00+10˚nnw12230 0.0 101923
04:00+9˚nw11260 0.0 101922
07:00+10˚n11260 0.0 102022
10:00+21˚nw33120 0.0 1021560
13:00+25˚nnw3490 0.0 10181253
16:00+22˚nw22110 0.0 101837
19:00+15˚nw12160 0.0 101923
22:00+13˚nnw11160 0.0 102023
30 november, mon
mon3001:00+12˚nw11175 0.0 101923
04:00+11˚ese001853 0.0 101923
07:00+12˚ese111889 0.0 102023
10:00+22˚ene231144 0.0 1021576
13:00+25˚ne23100 0.0 10181397
16:00+22˚nnw22130 0.0 101831
19:00+14˚nnw22200 0.0 101923
22:00+12˚wsw00220 0.0 101923
1 december, tue
tue101:00+13˚nw12200 0.0 101823
04:00+12˚nnw12200 0.0 101723
07:00+12˚nw11190 0.0 101823
10:00+23˚nw22100 0.0 1018478
13:00+26˚wnw2280 0.0 10151089
16:00+23˚nw2290 0.0 101423
19:00+15˚nne11150 0.0 101423
22:00+14˚wnw11160 0.0 101423
2 december, wed
wed201:00+13˚n11160 0.0 101423
04:00+13˚n11160 0.0 101423
07:00+14˚se22150 0.0 101523
10:00+22˚ne23100 0.0 1016524
13:00+26˚n4580 0.0 10151683
16:00+22˚nne71170 0.0 1016870
19:00+14˚nnw611110 0.0 1018270
22:00+13˚nnw610170 0.0 1021270